Location: Bushey
(51.6333°N, 0.3667°W)
Time: 02:01:16
(UTC+00:00)

SeaSat 1 - Pass Details

Date: 03 March 2021
Orbit: 744 x 748 km, 108.0° (Epoch: 11 April)

Event Time Altitude Azimuth Distance (km) Brightness Sun altitude
Rises 19:32:55 0° 30° (NNE) 3,203 5.5 -17.4°
Reaches altitude 10° 19:35:11 10° 31° (NNE) 2,276 4.8 -17.7°
Maximum altitude 19:40:09 87° 122° (ESE) 756 2.4 -18.5°
Drops below altitude 10° 19:45:05 10° 211° (SSW) 2,262 5.1 -19.2°
Sets 19:47:21 0° 212° (SSW) 3,182 5.9 -19.6°
